TimeCST,TemperatureF,Dew PointF,Humidity,Sea Level PressureIn,VisibilityMPH,Wind Direction,Wind SpeedMPH,Gust SpeedMPH,PrecipitationIn,Events,Conditions,WindDirDegrees,DateUTC
12:15 AM,33.8,32.0,93,29.87,10.0,East,6.9,-,N/A,,Overcast,100,2014-02-20 06:15:00
12:35 AM,33.8,33.8,100,29.87,10.0,ESE,6.9,-,N/A,,Overcast,110,2014-02-20 06:35:00
12:55 AM,35.6,33.8,93,29.86,10.0,ESE,6.9,-,N/A,,Overcast,110,2014-02-20 06:55:00
1:15 AM,37.4,33.8,87,29.85,10.0,ESE,6.9,-,N/A,,Overcast,120,2014-02-20 07:15:00
1:35 AM,37.4,33.8,87,29.84,10.0,ESE,8.1,-,N/A,,Overcast,120,2014-02-20 07:35:00
1:55 AM,39.2,33.8,81,29.83,10.0,ESE,6.9,-,N/A,,Overcast,120,2014-02-20 07:55:00
2:15 AM,39.2,33.8,81,29.82,10.0,ESE,5.8,-,N/A,,Overcast,120,2014-02-20 08:15:00
2:35 AM,41.0,35.6,81,29.81,10.0,SE,4.6,-,N/A,,Overcast,130,2014-02-20 08:35:00
2:55 AM,42.8,35.6,76,29.80,10.0,SE,8.1,-,N/A,,Overcast,130,2014-02-20 08:55:00
3:15 AM,42.8,35.6,76,29.79,10.0,SE,10.4,-,N/A,,Overcast,130,2014-02-20 09:15:00
3:35 AM,42.8,35.6,76,29.78,10.0,SE,6.9,-,N/A,,Overcast,140,2014-02-20 09:35:00
3:55 AM,42.8,37.4,81,29.76,10.0,SE,8.1,-,N/A,,Mostly Cloudy,140,2014-02-20 09:55:00
4:15 AM,42.8,37.4,81,29.76,10.0,SE,11.5,-,N/A,,Partly Cloudy,140,2014-02-20 10:15:00
4:35 AM,42.8,41.0,93,29.75,10.0,SSE,10.4,-,N/A,,Mostly Cloudy,150,2014-02-20 10:35:00
4:55 AM,44.6,41.0,87,29.75,10.0,SSE,12.7,-,N/A,,Overcast,150,2014-02-20 10:55:00
5:15 AM,44.6,42.8,93,29.74,10.0,SSE,10.4,-,N/A,,Overcast,150,2014-02-20 11:15:00
5:35 AM,48.2,42.8,82,29.75,10.0,SSE,9.2,-,N/A,,Mostly Cloudy,150,2014-02-20 11:35:00
5:55 AM,48.2,44.6,87,29.74,10.0,SSE,10.4,-,N/A,,Scattered Clouds,150,2014-02-20 11:55:00
6:15 AM,48.2,44.6,87,29.73,10.0,SE,6.9,-,N/A,,Clear,140,2014-02-20 12:15:00
6:35 AM,46.4,46.4,100,29.73,10.0,South,11.5,18.4,N/A,,Clear,180,2014-02-20 12:35:00
6:55 AM,53.6,51.8,94,29.74,10.0,South,15.0,18.4,N/A,,Mostly Cloudy,190,2014-02-20 12:55:00
7:15 AM,53.6,53.6,100,29.73,10.0,South,17.3,21.9,N/A,,Mostly Cloudy,190,2014-02-20 13:15:00
7:35 AM,53.6,53.6,100,29.72,10.0,South,17.3,26.5,N/A,,Scattered Clouds,180,2014-02-20 13:35:00
7:55 AM,59.0,53.6,82,29.72,10.0,South,18.4,27.6,N/A,,Clear,180,2014-02-20 13:55:00
8:15 AM,53.6,51.8,94,29.70,10.0,South,24.2,28.8,N/A,,Partly Cloudy,180,2014-02-20 14:15:00
8:35 AM,60.8,53.6,77,29.70,10.0,South,19.6,27.6,N/A,,Mostly Cloudy,180,2014-02-20 14:35:00
8:55 AM,60.8,53.6,77,29.70,10.0,South,24.2,33.4,N/A,,Mostly Cloudy,180,2014-02-20 14:55:00
9:15 AM,62.6,55.4,77,29.69,10.0,South,18.4,26.5,N/A,,Scattered Clouds,180,2014-02-20 15:15:00
9:35 AM,62.6,55.4,77,29.69,10.0,South,16.1,26.5,N/A,,Overcast,190,2014-02-20 15:35:00
9:55 AM,62.6,55.4,77,29.68,10.0,South,21.9,28.8,N/A,,Overcast,180,2014-02-20 15:55:00
10:15 AM,62.6,55.4,77,29.67,10.0,South,19.6,29.9,N/A,,Overcast,190,2014-02-20 16:15:00
10:35 AM,64.4,55.4,73,29.67,10.0,South,24.2,28.8,N/A,,Overcast,190,2014-02-20 16:35:00
10:55 AM,64.4,55.4,73,29.67,10.0,South,23.0,28.8,N/A,,Overcast,190,2014-02-20 16:55:00
11:15 AM,64.4,55.4,73,29.66,10.0,SSW,21.9,26.5,N/A,,Overcast,200,2014-02-20 17:15:00
11:35 AM,64.4,55.4,73,29.65,10.0,South,18.4,26.5,N/A,,Overcast,190,2014-02-20 17:35:00
11:55 AM,64.4,55.4,73,29.64,10.0,South,16.1,27.6,N/A,,Overcast,190,2014-02-20 17:55:00
12:15 PM,64.4,55.4,73,29.63,10.0,South,20.7,32.2,N/A,,Overcast,190,2014-02-20 18:15:00
12:35 PM,64.4,55.4,73,29.61,10.0,South,17.3,26.5,N/A,,Overcast,190,2014-02-20 18:35:00
12:55 PM,66.2,55.4,68,29.60,10.0,South,20.7,33.4,N/A,,Overcast,190,2014-02-20 18:55:00
1:15 PM,64.4,55.4,73,29.59,10.0,South,19.6,31.1,N/A,,Overcast,190,2014-02-20 19:15:00
1:35 PM,60.8,57.2,88,29.59,7.0,SSW,19.6,27.6,N/A,,Overcast,200,2014-02-20 19:35:00
1:55 PM,60.8,57.2,88,29.57,10.0,South,19.6,28.8,N/A,,Overcast,190,2014-02-20 19:55:00
2:15 PM,62.6,57.2,82,29.56,10.0,South,20.7,27.6,N/A,,Overcast,190,2014-02-20 20:15:00
2:35 PM,64.4,57.2,77,29.56,10.0,South,26.5,31.1,N/A,,Mostly Cloudy,190,2014-02-20 20:35:00
2:55 PM,66.2,57.2,73,29.54,10.0,South,23.0,31.1,N/A,,Mostly Cloudy,190,2014-02-20 20:55:00
3:15 PM,66.2,57.2,73,29.54,10.0,South,21.9,36.8,N/A,,Mostly Cloudy,190,2014-02-20 21:15:00
3:35 PM,66.2,57.2,73,29.55,10.0,South,19.6,36.8,N/A,,Mostly Cloudy,190,2014-02-20 21:35:00
3:55 PM,66.2,57.2,73,29.54,10.0,South,24.2,29.9,N/A,,Overcast,190,2014-02-20 21:55:00
4:15 PM,66.2,57.2,73,29.53,10.0,South,21.9,34.5,N/A,,Mostly Cloudy,190,2014-02-20 22:15:00
4:35 PM,66.2,57.2,73,29.53,10.0,South,23.0,31.1,N/A,,Scattered Clouds,190,2014-02-20 22:35:00
4:55 PM,66.2,57.2,73,29.51,10.0,South,19.6,27.6,N/A,,Mostly Cloudy,190,2014-02-20 22:55:00
5:15 PM,66.2,57.2,73,29.52,10.0,South,21.9,29.9,N/A,,Mostly Cloudy,190,2014-02-20 23:15:00
5:35 PM,66.2,57.2,73,29.51,10.0,South,23.0,29.9,N/A,,Mostly Cloudy,190,2014-02-20 23:35:00
5:55 PM,66.2,57.2,73,29.50,10.0,South,21.9,31.1,N/A,,Partly Cloudy,190,2014-02-20 23:55:00
6:15 PM,66.2,57.2,73,29.51,10.0,SSW,32.2,39.1,N/A,,Partly Cloudy,200,2014-02-21 00:15:00
6:35 PM,64.4,55.4,73,29.53,10.0,SW,21.9,34.5,N/A,,Mostly Cloudy,220,2014-02-21 00:35:00
6:55 PM,55.4,55.4,100,29.53,7.0,SSW,27.6,42.6,0.01,,Overcast,200,2014-02-21 00:55:00
7:15 PM,59.0,57.2,94,29.54,10.0,SW,25.3,31.1,N/A,Thunderstorm,Overcast,220,2014-02-21 01:15:00
7:35 PM,57.2,46.4,67,29.58,10.0,West,28.8,46.0,N/A,,Overcast,280,2014-02-21 01:35:00
7:55 PM,53.6,44.6,72,29.60,10.0,WNW,29.9,41.4,0.01,Thunderstorm,Thunderstorm,290,2014-02-21 01:55:00
8:15 PM,51.8,39.2,62,29.64,10.0,WNW,32.2,43.7,N/A,,Overcast,290,2014-02-21 02:15:00
8:35 PM,48.2,35.6,62,29.68,10.0,West,26.5,49.5,N/A,,Overcast,280,2014-02-21 02:35:00
8:55 PM,46.4,35.6,66,29.70,10.0,WNW,26.5,34.5,N/A,,Overcast,290,2014-02-21 02:55:00
9:15 PM,46.4,35.6,66,29.72,10.0,WNW,25.3,32.2,N/A,,Overcast,290,2014-02-21 03:15:00
9:35 PM,44.6,32.0,61,29.73,10.0,WNW,26.5,41.4,N/A,,Overcast,290,2014-02-21 03:35:00
9:55 PM,42.8,32.0,66,29.74,10.0,WNW,19.6,28.8,N/A,,Mostly Cloudy,290,2014-02-21 03:55:00
10:15 PM,42.8,30.2,61,29.75,10.0,WNW,15.0,20.7,N/A,,Mostly Cloudy,290,2014-02-21 04:15:00
10:35 PM,42.8,30.2,61,29.77,10.0,West,15.0,27.6,N/A,,Overcast,280,2014-02-21 04:35:00
10:55 PM,41.0,30.2,65,29.78,10.0,West,12.7,-,N/A,,Mostly Cloudy,270,2014-02-21 04:55:00
11:15 PM,39.2,30.2,70,29.79,10.0,West,11.5,-,N/A,,Clear,270,2014-02-21 05:15:00
11:35 PM,39.2,30.2,70,29.80,10.0,WSW,8.1,-,N/A,,Clear,250,2014-02-21 05:35:00
11:55 PM,39.2,30.2,70,29.80,10.0,WSW,8.1,-,N/A,,Clear,250,2014-02-21 05:55:00